Location: Dos Palmas
(32.4468°N, 116.8732°W)
Time: 05:25:50
(UTC+00:00)

CZ-4B R/B - Pass Details

Date: 20 June 2021
Orbit: 702 x 803 km, 98.9° (Epoch: 29 July)

Event Time Altitude Azimuth Distance (km) Brightness Sun altitude
Rises 11:14:55 0° 8° (N) 3,312 7.6 -15.6°
Reaches altitude 10° 11:17:18 10° 4° (N) 2,372 6.7 -15.2°
Maximum altitude 11:22:26 58° 287° (WNW) 917 3.7 -14.4°
Enters shadow 11:26:03 19° 213° (SSW) 1,787 4.8 -13.8°
